| time (UTC) | temp F | wind direction | speed MPH | gust MPH | rain 1hr in | rain 24hr in | rain mn in | humidity % | barometer mb |
| 20260904042100 | 74 | 4 | 2.0 | 3.0 | 0.00 | 0.00 | 0.00 | 67 | 1021.2 |
| 20260904041556 | 74 | 4 | 2.0 | 3.0 | 0.00 | 0.00 | 0.00 | 67 | 1021.1 |
| 20260904041332 | 74 | 4 | 2.0 | 3.0 | 0.00 | 0.00 | 0.00 | 65 | 1021.1 |
| 20260904040548 | 74 | 4 | 2.0 | 3.0 | 0.00 | 0.00 | 0.00 | 66 | 1021.0 |
| 20260904040045 | 74 | 4 | 2.0 | 2.0 | 0.00 | 0.00 | 0.00 | 66 | 1021.0 |
| 20260904035545 | 74 | 4 | 2.0 | 3.0 | 0.00 | 0.00 | 0.00 | 66 | 1021.1 |
| 20260904035042 | 74 | 4 | 2.0 | 3.0 | 0.00 | 0.00 | 0.00 | 66 | 1021.1 |
| 20260904034541 | 74 | 4 | 2.0 | 3.0 | 0.00 | 0.00 | 0.00 | 66 | 1021.1 |
| 20260904034038 | 74 | 4 | 2.0 | 3.0 | 0.00 | 0.00 | 0.00 | 66 | 1021.2 |
| 20260904033910 | 74 | 4 | 2.0 | 2.0 | 0.00 | 0.00 | 0.00 | 64 | 1021.2 |
| 20260904033606 | 74 | 4 | 2.0 | 2.0 | 0.00 | 0.00 | 0.00 | 65 | 1021.2 |
| 20260904032538 | 74 | 4 | 2.0 | 2.0 | 0.00 | 0.00 | 0.00 | 63 | 1021.2 |
| 20260904032040 | 74 | 4 | 2.0 | 3.0 | 0.00 | 0.00 | 0.00 | 59 | 1021.2 |
| 20260904031541 | 74 | 4 | 2.0 | 3.0 | 0.00 | 0.00 | 0.00 | 56 | 1021.1 |
| 20260904031040 | 74 | 4 | 2.0 | 3.0 | 0.00 | 0.00 | 0.00 | 56 | 1021.1 |
| 20260904030538 | 74 | 4 | 2.0 | 3.0 | 0.00 | 0.00 | 0.00 | 54 | 1021.1 |
| 20260904030036 | 74 | 4 | 2.0 | 3.0 | 0.00 | 0.00 | 0.00 | 52 | 1021.1 |
| 20260904025528 | 74 | 4 | 2.0 | 3.0 | 0.00 | 0.00 | 0.00 | 53 | 1021.1 |
| 20260904025022 | 74 | 4 | 2.0 | 4.0 | 0.00 | 0.00 | 0.00 | 56 | 1021.1 |
| 20260904024523 | 74 | 4 | 2.0 | 4.0 | 0.00 | 0.00 | 0.00 | 57 | 1021.0 |
| 20260904024022 | 74 | 4 | 2.0 | 3.0 | 0.00 | 0.00 | 0.00 | 54 | 1021.0 |
| 20260904023522 | 74 | 4 | 2.0 | 3.0 | 0.00 | 0.00 | 0.00 | 54 | 1021.1 |
| 20260904023024 | 74 | 4 | 2.0 | 3.0 | 0.00 | 0.00 | 0.00 | 58 | 1021.1 |
| 20260904022519 | 74 | 4 | 2.0 | 3.0 | 0.00 | 0.00 | 0.00 | 59 | 1021.1 |
| 20260904022029 | 74 | 4 | 2.0 | 3.0 | 0.00 | 0.00 | 0.00 | 58 | 1021.2 |
| 20260904021518 | 75 | 4 | 2.0 | 3.0 | 0.00 | 0.00 | 0.00 | 57 | 1021.3 |
| 20260904021016 | 75 | 4 | 2.0 | 3.0 | 0.00 | 0.00 | 0.00 | 57 | 1021.2 |
| 20260904020515 | 75 | 4 | 2.0 | 3.0 | 0.00 | 0.00 | 0.00 | 58 | 1021.2 |
| 20260904020021 | 75 | 4 | 2.0 | 3.0 | 0.00 | 0.00 | 0.00 | 57 | 1021.2 |
| 20260904015517 | 75 | 4 | 2.0 | 3.0 | 0.00 | 0.00 | 0.00 | 57 | 1021.2 |
| 20260904015013 | 75 | 4 | 2.0 | 3.0 | 0.00 | 0.00 | 0.00 | 54 | 1021.2 |
| 20260904014516 | 75 | 4 | 2.0 | 3.0 | 0.00 | 0.00 | 0.00 | 54 | 1021.2 |
| 20260904014028 | 75 | 4 | 2.0 | 3.0 | 0.00 | 0.00 | 0.00 | 54 | 1021.2 |
| 20260904013512 | 75 | 349 | 2.0 | 3.0 | 0.00 | 0.00 | 0.00 | 55 | 1021.1 |
| 20260904013012 | 75 | 349 | 3.0 | 4.0 | 0.00 | 0.00 | 0.00 | 55 | 1021.2 |
| 20260904012512 | 75 | 349 | 3.0 | 4.0 | 0.00 | 0.00 | 0.00 | 55 | 1021.1 |
| 20260904012012 | 76 | 359 | 2.0 | 3.0 | 0.00 | 0.00 | 0.00 | 56 | 1021.1 |
| 20260904011511 | 76 | 354 | 2.0 | 3.0 | 0.00 | 0.00 | 0.00 | 57 | 1021.1 |
| 20260904011008 | 76 | 338 | 2.0 | 3.0 | 0.00 | 0.00 | 0.00 | 56 | 1021.1 |
| 20260904010509 | 76 | 338 | 2.0 | 3.0 | 0.00 | 0.00 | 0.00 | 56 | 1021.1 |
| 20260904010008 | 76 | 337 | 2.0 | 3.0 | 0.00 | 0.00 | 0.00 | 55 | 1021.1 |
| 20260904005510 | 76 | 337 | 2.0 | 3.0 | 0.00 | 0.00 | 0.00 | 56 | 1021.0 |
| 20260904005255 | 76 | 337 | 2.0 | 3.0 | 0.00 | 0.00 | 0.00 | 53 | 1021.0 |
| 20260904004508 | 76 | 337 | 2.0 | 3.0 | 0.00 | 0.00 | 0.00 | 55 | 1021.0 |
| 20260904004007 | 76 | 337 | 2.0 | 4.0 | 0.00 | 0.00 | 0.00 | 53 | 1021.0 |
| 20260904003506 | 76 | 321 | 2.0 | 4.0 | 0.00 | 0.00 | 0.00 | 53 | 1021.0 |
| 20260904003250 | 76 | 300 | 2.0 | 3.0 | 0.00 | 0.00 | 0.00 | 57 | 1021.0 |
| 20260904002510 | 76 | 300 | 2.0 | 3.0 | 0.00 | 0.00 | 0.00 | 55 | 1021.1 |
| 20260904002010 | 76 | 300 | 2.0 | 4.0 | 0.00 | 0.00 | 0.00 | 56 | 1021.1 |
| 20260904001507 | 76 | 293 | 2.0 | 4.0 | 0.00 | 0.00 | 0.00 | 55 | 1021.1 |
| 20260904001006 | 76 | 338 | 2.0 | 4.0 | 0.00 | 0.00 | 0.00 | 57 | 1021.2 |
| 20260904000506 | 76 | 339 | 2.0 | 3.0 | 0.00 | 0.00 | 0.00 | 57 | 1021.2 |
| 20260904000016 | 75 | 347 | 2.0 | 3.0 | 0.00 | 0.00 | 0.00 | 57 | 1021.3 |
| 20260903235802 | 75 | 4 | 2.0 | 3.0 | 0.00 | 0.00 | 0.00 | 57 | 1021.2 |
| 20260903235011 | 75 | 4 | 2.0 | 4.0 | 0.00 | 0.00 | 0.00 | 55 | 1021.3 |
| 20260903234511 | 75 | 4 | 2.0 | 4.0 | 0.00 | 0.00 | 0.00 | 53 | 1021.3 |
| 20260903234256 | 75 | 4 | 2.0 | 3.0 | 0.00 | 0.00 | 0.00 | 52 | 1021.2 |
| 20260903233508 | 75 | 4 | 2.0 | 3.0 | 0.00 | 0.00 | 0.00 | 53 | 1021.2 |
| 20260903233008 | 75 | 340 | 2.0 | 3.0 | 0.00 | 0.00 | 0.00 | 53 | 1021.3 |
| 20260903232515 | 75 | 340 | 2.0 | 3.0 | 0.00 | 0.00 | 0.00 | 53 | 1021.2 |
| 20260903232258 | 75 | 340 | 2.0 | 3.0 | 0.00 | 0.00 | 0.00 | 52 | 1021.2 |
| 20260903231949 | 75 | 340 | 2.0 | 3.0 | 0.00 | 0.00 | 0.00 | 52 | 1021.2 |
| 20260903231601 | 75 | 340 | 2.0 | 3.0 | 0.00 | 0.00 | 0.00 | 53 | 1021.2 |
| 20260903230507 | 75 | 338 | 2.0 | 3.0 | 0.00 | 0.00 | 0.00 | 53 | 1021.3 |
| 20260903230006 | 75 | 337 | 3.0 | 4.0 | 0.00 | 0.00 | 0.00 | 55 | 1021.3 |
| 20260903225507 | 75 | 337 | 3.0 | 4.0 | 0.00 | 0.00 | 0.00 | 57 | 1021.4 |
| 20260903225008 | 75 | 335 | 3.0 | 4.0 | 0.00 | 0.00 | 0.00 | 57 | 1021.4 |
| 20260903224507 | 75 | 334 | 3.0 | 4.0 | 0.00 | 0.00 | 0.00 | 56 | 1021.3 |
| 20260903224005 | 74 | 335 | 3.0 | 4.0 | 0.00 | 0.00 | 0.00 | 56 | 1021.3 |
| 20260903223747 | 74 | 340 | 3.0 | 4.0 | 0.00 | 0.00 | 0.00 | 58 | 1021.3 |
| 20260903223001 | 74 | 315 | 2.0 | 4.0 | 0.00 | 0.00 | 0.00 | 61 | 1021.2 |
| 20260903222503 | 74 | 302 | 2.0 | 4.0 | 0.00 | 0.00 | 0.00 | 63 | 1021.2 |
| 20260903222311 | 74 | 341 | 3.0 | 4.0 | 0.00 | 0.00 | 0.00 | 64 | 1021.2 |
| 20260903221743 | 74 | 316 | 3.0 | 4.0 | 0.00 | 0.00 | 0.00 | 58 | 1021.2 |
| 20260903220956 | 74 | 333 | 2.0 | 3.0 | 0.00 | 0.00 | 0.00 | 60 | 1021.3 |
| 20260903220743 | 74 | 342 | 3.0 | 3.0 | 0.00 | 0.00 | 0.00 | 61 | 1021.3 |
| 20260903215956 | 74 | 337 | 3.0 | 3.0 | 0.00 | 0.00 | 0.00 | 65 | 1021.4 |
| 20260903215733 | 74 | 354 | 3.0 | 4.0 | 0.00 | 0.00 | 0.00 | 67 | 1021.3 |
| 20260903214957 | 75 | 301 | 3.0 | 4.0 | 0.00 | 0.00 | 0.00 | 69 | 1021.2 |
| 20260903214455 | 75 | 354 | 3.0 | 4.0 | 0.00 | 0.00 | 0.00 | 70 | 1021.2 |
| 20260903213950 | 75 | 354 | 2.0 | 4.0 | 0.00 | 0.00 | 0.00 | 71 | 1021.3 |
| 20260903213443 | 75 | 341 | 2.0 | 4.0 | 0.00 | 0.00 | 0.00 | 74 | 1021.3 |
| 20260903212941 | 75 | 341 | 2.0 | 3.0 | 0.00 | 0.00 | 0.00 | 74 | 1021.3 |
| 20260903212443 | 75 | 316 | 2.0 | 3.0 | 0.00 | 0.00 | 0.00 | 75 | 1021.3 |
| 20260903212223 | 75 | 316 | 2.0 | 3.0 | 0.00 | 0.00 | 0.00 | 75 | 1021.4 |
| 20260903211439 | 75 | 314 | 2.0 | 3.0 | 0.00 | 0.00 | 0.00 | 74 | 1021.3 |
| 20260903210937 | 75 | 314 | 2.0 | 3.0 | 0.00 | 0.00 | 0.00 | 74 | 1021.3 |
| 20260903210437 | 75 | 312 | 2.0 | 3.0 | 0.00 | 0.00 | 0.00 | 75 | 1021.2 |
| 20260903210240 | 75 | 312 | 2.0 | 3.0 | 0.00 | 0.00 | 0.00 | 75 | 1021.2 |
| 20260903205714 | 75 | 312 | 2.0 | 3.0 | 0.00 | 0.00 | 0.00 | 75 | 1021.1 |
| 20260903204935 | 75 | 312 | 2.0 | 3.0 | 0.00 | 0.00 | 0.00 | 75 | 1021.1 |
| 20260903204434 | 75 | 309 | 2.0 | 3.0 | 0.00 | 0.00 | 0.00 | 75 | 1021.1 |
| 20260903203933 | 75 | 308 | 2.0 | 3.0 | 0.00 | 0.00 | 0.00 | 75 | 1021.2 |
| 20260903203432 | 75 | 308 | 2.0 | 3.0 | 0.00 | 0.00 | 0.00 | 75 | 1021.2 |
| 20260903202934 | 75 | 308 | 2.0 | 3.0 | 0.00 | 0.00 | 0.00 | 75 | 1021.2 |
| 20260903202432 | 75 | 308 | 2.0 | 3.0 | 0.00 | 0.00 | 0.00 | 75 | 1021.2 |
| 20260903201933 | 75 | 301 | 2.0 | 3.0 | 0.00 | 0.00 | 0.00 | 76 | 1021.2 |
| 20260903201436 | 75 | 286 | 2.0 | 3.0 | 0.00 | 0.00 | 0.00 | 76 | 1021.1 |
| 20260903200943 | 75 | 286 | 2.0 | 3.0 | 0.00 | 0.00 | 0.00 | 76 | 1021.1 |
| 20260903200433 | 75 | 286 | 1.0 | 3.0 | 0.00 | 0.00 | 0.00 | 76 | 1021.2 |
| 20260903200018 | 75 | 286 | 2.0 | 3.0 | 0.00 | 0.00 | 0.00 | 76 | 1021.1 |
| 20260903195958 | 75 | 286 | 2.0 | 2.0 | 0.00 | 0.00 | 0.00 | 76 | 1021.1 |
| 20260903195217 | 75 | 286 | 2.0 | 3.0 | 0.00 | 0.00 | 0.00 | 76 | 1021.1 |
| 20260903194432 | 75 | 278 | 2.0 | 3.0 | 0.00 | 0.00 | 0.00 | 76 | 1021.1 |
| 20260903193934 | 75 | 278 | 2.0 | 3.0 | 0.00 | 0.00 | 0.00 | 76 | 1021.0 |
| 20260903193435 | 75 | 276 | 2.0 | 3.0 | 0.00 | 0.00 | 0.00 | 76 | 1021.0 |
| 20260903193221 | 75 | 276 | 2.0 | 3.0 | 0.00 | 0.00 | 0.00 | 76 | 1021.1 |
| 20260903192434 | 75 | 276 | 2.0 | 2.0 | 0.00 | 0.00 | 0.00 | 76 | 1020.9 |
| 20260903191934 | 75 | 276 | 1.0 | 3.0 | 0.00 | 0.00 | 0.00 | 76 | 1020.9 |
| 20260903191428 | 75 | 276 | 1.0 | 3.0 | 0.00 | 0.00 | 0.00 | 76 | 1020.9 |
| 20260903190921 | 75 | 276 | 1.0 | 2.0 | 0.00 | 0.00 | 0.00 | 76 | 1020.9 |
| 20260903190656 | 75 | 276 | 1.0 | 2.0 | 0.00 | 0.00 | 0.00 | 76 | 1021.0 |
| 20260903185919 | 75 | 276 | 1.0 | 2.0 | 0.00 | 0.00 | 0.00 | 76 | 1021.0 |
| 20260903185711 | 75 | 276 | 1.0 | 2.0 | 0.00 | 0.00 | 0.00 | 76 | 1021.0 |
| 20260903184921 | 75 | 276 | 1.0 | 2.0 | 0.00 | 0.00 | 0.00 | 76 | 1020.9 |
| 20260903184417 | 75 | 276 | 1.0 | 2.0 | 0.00 | 0.00 | 0.00 | 76 | 1020.8 |
| 20260903183920 | 75 | 276 | 1.0 | 2.0 | 0.00 | 0.00 | 0.00 | 77 | 1020.8 |
| 20260903183416 | 75 | 276 | 2.0 | 3.0 | 0.00 | 0.00 | 0.00 | 77 | 1020.8 |
| 20260903182918 | 75 | 276 | 1.0 | 3.0 | 0.00 | 0.00 | 0.00 | 76 | 1020.7 |
| 20260903182415 | 76 | 276 | 1.0 | 2.0 | 0.00 | 0.00 | 0.00 | 76 | 1020.8 |
| 20260903181916 | 76 | 276 | 1.0 | 2.0 | 0.00 | 0.00 | 0.00 | 76 | 1020.7 |
| 20260903181656 | 76 | 276 | 1.0 | 2.0 | 0.00 | 0.00 | 0.00 | 76 | 1020.7 |
| 20260903180909 | 76 | 276 | 1.0 | 3.0 | 0.00 | 0.00 | 0.00 | 76 | 1020.7 |
| 20260903180411 | 76 | 276 | 1.0 | 3.0 | 0.00 | 0.00 | 0.00 | 76 | 1020.7 |
| 20260903175909 | 76 | 276 | 1.0 | 2.0 | 0.00 | 0.00 | 0.00 | 76 | 1020.6 |
| 20260903175411 | 76 | 276 | 1.0 | 2.0 | 0.00 | 0.00 | 0.00 | 76 | 1020.6 |
| 20260903174910 | 76 | 276 | 1.0 | 2.0 | 0.00 | 0.00 | 0.00 | 75 | 1020.7 |
| 20260903174409 | 76 | 276 | 1.0 | 2.0 | 0.00 | 0.00 | 0.00 | 75 | 1020.6 |
| 20260903173909 | 76 | 276 | 1.0 | 2.0 | 0.00 | 0.00 | 0.00 | 75 | 1020.6 |
| 20260903173409 | 77 | 276 | 1.0 | 2.0 | 0.00 | 0.00 | 0.00 | 75 | 1020.6 |
| 20260903172911 | 77 | 276 | 1.0 | 2.0 | 0.00 | 0.00 | 0.00 | 75 | 1020.6 |
| 20260903172412 | 77 | 276 | 1.0 | 2.0 | 0.00 | 0.00 | 0.00 | 75 | 1020.6 |
| 20260903171910 | 77 | 276 | 1.0 | 2.0 | 0.00 | 0.00 | 0.00 | 75 | 1020.5 |
| 20260903171409 | 77 | 276 | 1.0 | 3.0 | 0.00 | 0.00 | 0.00 | 75 | 1020.5 |
| 20260903171203 | 77 | 276 | 2.0 | 3.0 | 0.00 | 0.00 | 0.00 | 74 | 1020.5 |
| 20260903170425 | 77 | 276 | 2.0 | 3.0 | 0.00 | 0.00 | 0.00 | 74 | 1020.5 |
| 20260903165907 | 78 | 276 | 2.0 | 3.0 | 0.00 | 0.00 | 0.00 | 73 | 1020.5 |
| 20260903165407 | 78 | 276 | 1.0 | 2.0 | 0.00 | 0.00 | 0.00 | 73 | 1020.5 |
| 20260903164909 | 78 | 275 | 2.0 | 3.0 | 0.00 | 0.00 | 0.00 | 72 | 1020.5 |
| 20260903164412 | 78 | 275 | 2.0 | 4.0 | 0.00 | 0.00 | 0.00 | 71 | 1020.5 |
| 20260903163907 | 78 | 275 | 2.0 | 4.0 | 0.00 | 0.00 | 0.00 | 71 | 1020.5 |
| 20260903163441 | 78 | 61 | 1.0 | 3.0 | 0.00 | 0.00 | 0.00 | 72 | 1020.5 |
| 20260903163427 | 78 | 293 | 1.0 | 4.0 | 0.00 | 0.00 | 0.00 | 71 | 1020.5 |
| 20260903162408 | 78 | 61 | 1.0 | 3.0 | 0.00 | 0.00 | 0.00 | 71 | 1020.5 |
| 20260903161907 | 78 | 287 | 2.0 | 4.0 | 0.00 | 0.00 | 0.00 | 71 | 1020.6 |
| 20260903161407 | 78 | 287 | 2.0 | 4.0 | 0.00 | 0.00 | 0.00 | 70 | 1020.5 |
| 20260903160912 | 78 | 234 | 1.0 | 3.0 | 0.00 | 0.00 | 0.00 | 71 | 1020.4 |
| 20260903160405 | 79 | 150 | 1.0 | 3.0 | 0.00 | 0.00 | 0.00 | 71 | 1020.6 |
| 20260903160151 | 79 | 149 | 1.0 | 2.0 | 0.00 | 0.00 | 0.00 | 73 | 1020.6 |
| 20260903155406 | 79 | 149 | 1.0 | 2.0 | 0.00 | 0.00 | 0.00 | 72 | 1020.4 |
| 20260903154905 | 80 | 149 | 1.0 | 2.0 | 0.00 | 0.00 | 0.00 | 72 | 1020.4 |
| 20260903154405 | 80 | 149 | 1.0 | 3.0 | 0.00 | 0.00 | 0.00 | 72 | 1020.6 |
| 20260903153904 | 80 | 149 | 1.0 | 3.0 | 0.00 | 0.00 | 0.00 | 70 | 1020.6 |
| 20260903153408 | 80 | 231 | 0.0 | 2.0 | 0.00 | 0.00 | 0.00 | 71 | 1020.7 |
| 20260903152907 | 80 | 278 | 1.0 | 4.0 | 0.00 | 0.00 | 0.00 | 70 | 1020.7 |
| 20260903152419 | 80 | 278 | 1.0 | 4.0 | 0.00 | 0.00 | 0.00 | 69 | 1020.6 |
| 20260903151919 | 81 | 291 | 1.0 | 3.0 | 0.00 | 0.00 | 0.00 | 69 | 1020.7 |
| 20260903151420 | 81 | 148 | 1.0 | 2.0 | 0.00 | 0.00 | 0.00 | 69 | 1020.6 |
| 20260903150905 | 80 | 149 | 1.0 | 3.0 | 0.00 | 0.00 | 0.00 | 67 | 1020.6 |
| 20260903150405 | 80 | 149 | 1.0 | 3.0 | 0.00 | 0.00 | 0.00 | 67 | 1020.7 |
| 20260903145906 | 81 | 139 | 1.0 | 3.0 | 0.00 | 0.00 | 0.00 | 65 | 1020.8 |
| 20260903145405 | 81 | 139 | 1.0 | 2.0 | 0.00 | 0.00 | 0.00 | 66 | 1020.7 |
| 20260903144903 | 81 | 139 | 1.0 | 2.0 | 0.00 | 0.00 | 0.00 | 65 | 1020.7 |
| 20260903144443 | 82 | 139 | 1.0 | 3.0 | 0.00 | 0.00 | 0.00 | 65 | 1020.9 |
| 20260903144424 | 82 | 139 | 1.0 | 3.0 | 0.00 | 0.00 | 0.00 | 66 | 1020.9 |
| 20260903143649 | 82 | 139 | 1.0 | 3.0 | 0.00 | 0.00 | 0.00 | 65 | 1020.9 |
| 20260903142857 | 82 | 140 | 1.0 | 2.0 | 0.00 | 0.00 | 0.00 | 63 | 1021.0 |
| 20260903142426 | 82 | 141 | 2.0 | 6.0 | 0.00 | 0.00 | 0.00 | 63 | 1021.0 |
| 20260903142414 | 82 | 141 | 1.0 | 4.0 | 0.00 | 0.00 | 0.00 | 64 | 1021.0 |
| 20260903141358 | 82 | 138 | 2.0 | 6.0 | 0.00 | 0.00 | 0.00 | 61 | 1021.0 |
| 20260903140855 | 82 | 122 | 2.0 | 6.0 | 0.00 | 0.00 | 0.00 | 61 | 1021.0 |
| 20260903140353 | 82 | 144 | 2.0 | 6.0 | 0.00 | 0.00 | 0.00 | 61 | 1021.0 |
| 20260903135853 | 82 | 161 | 3.0 | 7.0 | 0.00 | 0.00 | 0.00 | 60 | 1021.0 |
| 20260903135353 | 82 | 115 | 3.0 | 7.0 | 0.00 | 0.00 | 0.00 | 61 | 1021.1 |
| 20260903134854 | 82 | 144 | 3.0 | 8.0 | 0.00 | 0.00 | 0.00 | 62 | 1021.1 |
| 20260903134354 | 83 | 99 | 3.0 | 8.0 | 0.00 | 0.00 | 0.00 | 61 | 1021.2 |
| 20260903133854 | 83 | 125 | 2.0 | 7.0 | 0.00 | 0.00 | 0.00 | 61 | 1021.2 |
| 20260903133349 | 83 | 135 | 2.0 | 7.0 | 0.00 | 0.00 | 0.00 | 62 | 1021.2 |
| 20260903132848 | 83 | 133 | 3.0 | 7.0 | 0.00 | 0.00 | 0.00 | 62 | 1021.2 |
| 20260903132350 | 83 | 145 | 2.0 | 8.0 | 0.00 | 0.00 | 0.00 | 61 | 1021.2 |
| 20260903131842 | 83 | 150 | 3.0 | 9.0 | 0.00 | 0.00 | 0.00 | 62 | 1021.1 |
| 20260903131341 | 83 | 176 | 3.0 | 9.0 | 0.00 | 0.00 | 0.00 | 62 | 1021.1 |
| 20260903130837 | 83 | 154 | 3.0 | 7.0 | 0.00 | 0.00 | 0.00 | 62 | 1021.1 |
| 20260903130337 | 83 | 42 | 3.0 | 10.0 | 0.00 | 0.00 | 0.00 | 62 | 1021.1 |
| 20260903125839 | 83 | 149 | 3.0 | 10.0 | 0.00 | 0.00 | 0.00 | 61 | 1021.1 |
| 20260903125624 | 83 | 152 | 3.0 | 8.0 | 0.00 | 0.00 | 0.00 | 61 | 1021.1 |
| 20260903124834 | 83 | 145 | 3.0 | 7.0 | 0.00 | 0.00 | 0.00 | 62 | 1021.0 |
| 20260903124333 | 83 | 160 | 3.0 | 7.0 | 0.00 | 0.00 | 0.00 | 63 | 1021.0 |
| 20260903123832 | 83 | 143 | 3.0 | 9.0 | 0.00 | 0.00 | 0.00 | 65 | 1021.0 |
| 20260903123334 | 83 | 97 | 3.0 | 9.0 | 0.00 | 0.00 | 0.00 | 64 | 1021.0 |
| 20260903122833 | 83 | 151 | 3.0 | 7.0 | 0.00 | 0.00 | 0.00 | 64 | 1021.1 |
| 20260903122333 | 83 | 131 | 3.0 | 7.0 | 0.00 | 0.00 | 0.00 | 65 | 1021.1 |
| 20260903122135 | 83 | 140 | 3.0 | 7.0 | 0.00 | 0.00 | 0.00 | 65 | 1021.1 |
| 20260903121332 | 83 | 113 | 3.0 | 9.0 | 0.00 | 0.00 | 0.00 | 66 | 1021.1 |
| 20260903120832 | 82 | 101 | 4.0 | 9.0 | 0.00 | 0.00 | 0.00 | 66 | 1021.2 |
| 20260903120331 | 82 | 206 | 4.0 | 9.0 | 0.00 | 0.00 | 0.00 | 65 | 1021.2 |
| 20260903120224 | 82 | 186 | 3.0 | 8.0 | 0.00 | 0.00 | 0.00 | 66 | 1021.3 |
| 20260903115314 | 83 | 126 | 3.0 | 8.0 | 0.00 | 0.00 | 0.00 | 70 | 1021.3 |
| 20260903115058 | 83 | 106 | 3.0 | 8.0 | 0.00 | 0.00 | 0.00 | 71 | 1021.3 |
| 20260903114312 | 83 | 140 | 3.0 | 7.0 | 0.00 | 0.00 | 0.00 | 70 | 1021.3 |
| 20260903114109 | 83 | 148 | 3.0 | 7.0 | 0.00 | 0.00 | 0.00 | 69 | 1021.3 |
| 20260903113634 | 83 | 165 | 3.0 | 6.0 | 0.00 | 0.00 | 0.00 | 70 | 1021.3 |
| 20260903113121 | 82 | 122 | 3.0 | 7.0 | 0.00 | 0.00 | 0.00 | 71 | 1021.3 |
| 20260903112313 | 82 | 151 | 3.0 | 7.0 | 0.00 | 0.00 | 0.00 | 70 | 1021.3 |
| 20260903111813 | 82 | 110 | 3.0 | 7.0 | 0.00 | 0.00 | 0.00 | 70 | 1021.4 |
| 20260903111313 | 82 | 134 | 3.0 | 10.0 | 0.00 | 0.00 | 0.00 | 70 | 1021.5 |
| 20260903110811 | 83 | 169 | 3.0 | 10.0 | 0.00 | 0.00 | 0.00 | 70 | 1021.5 |
| 20260903110309 | 82 | 110 | 3.0 | 8.0 | 0.00 | 0.00 | 0.00 | 70 | 1021.5 |
| 20260903105809 | 82 | 143 | 3.0 | 6.0 | 0.00 | 0.00 | 0.00 | 70 | 1021.6 |
| 20260903105311 | 82 | 143 | 2.0 | 6.0 | 0.00 | 0.00 | 0.00 | 70 | 1021.5 |
| 20260903104810 | 82 | 114 | 2.0 | 6.0 | 0.00 | 0.00 | 0.00 | 69 | 1021.8 |
| 20260903104310 | 82 | 120 | 2.0 | 6.0 | 0.00 | 0.00 | 0.00 | 68 | 1021.8 |
| 20260903103804 | 82 | 129 | 2.0 | 5.0 | 0.00 | 0.00 | 0.00 | 68 | 1021.8 |
| 20260903103552 | 82 | 141 | 2.0 | 6.0 | 0.00 | 0.00 | 0.00 | 67 | 1021.8 |
| 20260903103102 | 83 | 148 | 2.0 | 6.0 | 0.00 | 0.00 | 0.00 | 65 | 1021.8 |
| 20260903102552 | 83 | 128 | 2.0 | 5.0 | 0.00 | 0.00 | 0.00 | 65 | 1021.8 |
| 20260903101805 | 83 | 164 | 2.0 | 5.0 | 0.00 | 0.00 | 0.00 | 64 | 1021.8 |
| 20260903101553 | 82 | 129 | 2.0 | 6.0 | 0.00 | 0.00 | 0.00 | 64 | 1022.0 |
| 20260903100805 | 82 | 133 | 2.0 | 6.0 | 0.00 | 0.00 | 0.00 | 64 | 1022.0 |
| 20260903100307 | 82 | 160 | 2.0 | 4.0 | 0.00 | 0.00 | 0.00 | 64 | 1022.1 |
| 20260903095805 | 82 | 171 | 2.0 | 5.0 | 0.00 | 0.00 | 0.00 | 63 | 1022.1 |
| 20260903095630 | 82 | 202 | 2.0 | 5.0 | 0.00 | 0.00 | 0.00 | 65 | 1022.2 |
| 20260903095327 | 82 | 170 | 2.0 | 5.0 | 0.00 | 0.00 | 0.00 | 65 | 1022.1 |
| 20260903094305 | 82 | 147 | 2.0 | 5.0 | 0.00 | 0.00 | 0.00 | 65 | 1022.2 |
| 20260903093809 | 81 | 171 | 2.0 | 6.0 | 0.00 | 0.00 | 0.00 | 65 | 1022.2 |
| 20260903093308 | 81 | 120 | 2.0 | 6.0 | 0.00 | 0.00 | 0.00 | 66 | 1022.3 |
| 20260903092804 | 81 | 151 | 2.0 | 5.0 | 0.00 | 0.00 | 0.00 | 66 | 1022.3 |
| 20260903092306 | 81 | 125 | 2.0 | 5.0 | 0.00 | 0.00 | 0.00 | 65 | 1022.4 |
| 20260903091808 | 80 | 112 | 2.0 | 4.0 | 0.00 | 0.00 | 0.00 | 66 | 1022.4 |
| 20260903091303 | 80 | 183 | 2.0 | 4.0 | 0.00 | 0.00 | 0.00 | 67 | 1022.3 |
| 20260903090804 | 80 | 131 | 2.0 | 4.0 | 0.00 | 0.00 | 0.00 | 67 | 1022.3 |
| 20260903090304 | 79 | 112 | 2.0 | 6.0 | 0.00 | 0.00 | 0.00 | 69 | 1022.3 |
| 20260903085804 | 79 | 143 | 2.0 | 6.0 | 0.00 | 0.00 | 0.00 | 69 | 1022.3 |
| 20260903085548 | 79 | 126 | 2.0 | 5.0 | 0.00 | 0.00 | 0.00 | 70 | 1022.2 |
| 20260903084804 | 79 | 145 | 2.0 | 5.0 | 0.00 | 0.00 | 0.00 | 71 | 1022.1 |
| 20260903084306 | 79 | 171 | 1.0 | 5.0 | 0.00 | 0.00 | 0.00 | 71 | 1022.2 |
| 20260903083804 | 79 | 193 | 2.0 | 5.0 | 0.00 | 0.00 | 0.00 | 71 | 1022.2 |
| 20260903083303 | 78 | 127 | 2.0 | 4.0 | 0.00 | 0.00 | 0.00 | 72 | 1022.2 |
| 20260903082804 | 78 | 149 | 2.0 | 4.0 | 0.00 | 0.00 | 0.00 | 72 | 1022.1 |
| 20260903082308 | 78 | 137 | 2.0 | 4.0 | 0.00 | 0.00 | 0.00 | 71 | 1022.0 |
| 20260903081804 | 78 | 135 | 2.0 | 3.0 | 0.00 | 0.00 | 0.00 | 71 | 1021.8 |
| 20260903081556 | 77 | 138 | 2.0 | 4.0 | 0.00 | 0.00 | 0.00 | 71 | 1021.8 |
| 20260903081155 | 77 | 162 | 2.0 | 5.0 | 0.00 | 0.00 | 0.00 | 70 | 1021.8 |
| 20260903081150 | 77 | 137 | 2.0 | 4.0 | 0.00 | 0.00 | 0.00 | 71 | 1021.8 |
| 20260903075805 | 77 | 163 | 2.0 | 5.0 | 0.00 | 0.00 | 0.00 | 71 | 1021.8 |
| 20260903075307 | 76 | 152 | 2.0 | 3.0 | 0.00 | 0.00 | 0.00 | 71 | 1021.7 |
| 20260903074810 | 76 | 152 | 2.0 | 4.0 | 0.00 | 0.00 | 0.00 | 71 | 1021.7 |
| 20260903074306 | 76 | 143 | 2.0 | 4.0 | 0.00 | 0.00 | 0.00 | 71 | 1021.6 |
| 20260903073805 | 76 | 110 | 2.0 | 4.0 | 0.00 | 0.00 | 0.00 | 70 | 1021.5 |
| 20260903073306 | 76 | 127 | 2.0 | 4.0 | 0.00 | 0.00 | 0.00 | 70 | 1021.5 |
| 20260903072805 | 76 | 124 | 2.0 | 4.0 | 0.00 | 0.00 | 0.00 | 71 | 1021.5 |
| 20260903072306 | 75 | 125 | 2.0 | 4.0 | 0.00 | 0.00 | 0.00 | 70 | 1021.5 |
| 20260903071809 | 75 | 126 | 1.0 | 3.0 | 0.00 | 0.00 | 0.00 | 72 | 1021.5 |
| 20260903071305 | 75 | 125 | 2.0 | 3.0 | 0.00 | 0.00 | 0.00 | 72 | 1021.5 |
| 20260903070804 | 75 | 126 | 2.0 | 3.0 | 0.00 | 0.00 | 0.00 | 72 | 1021.4 |
| 20260903070550 | 75 | 126 | 2.0 | 3.0 | 0.00 | 0.00 | 0.00 | 71 | 1021.4 |
| 20260903070114 | 75 | 125 | 2.0 | 3.0 | 0.00 | 0.00 | 0.00 | 70 | 1021.4 |
| 20260903065306 | 75 | 125 | 1.0 | 3.0 | 0.00 | 0.00 | 0.00 | 70 | 1021.4 |
| 20260903064804 | 75 | 125 | 1.0 | 3.0 | 0.00 | 0.00 | 0.00 | 70 | 1021.4 |
| 20260903064306 | 75 | 125 | 1.0 | 3.0 | 0.00 | 0.00 | 0.00 | 70 | 1021.4 |
| 20260903063804 | 75 | 125 | 1.0 | 3.0 | 0.00 | 0.00 | 0.00 | 72 | 1021.3 |
| 20260903063303 | 75 | 125 | 1.0 | 3.0 | 0.00 | 0.00 | 0.00 | 72 | 1021.3 |
| 20260903062809 | 74 | 125 | 1.0 | 3.0 | 0.00 | 0.00 | 0.00 | 72 | 1021.3 |
| 20260903062306 | 75 | 58 | 1.0 | 3.0 | 0.00 | 0.00 | 0.00 | 71 | 1021.3 |
| 20260903061803 | 75 | 58 | 1.0 | 3.0 | 0.00 | 0.00 | 0.00 | 72 | 1021.3 |
| 20260903061547 | 75 | 58 | 1.0 | 2.0 | 0.00 | 0.00 | 0.00 | 72 | 1021.1 |
| 20260903060803 | 74 | 58 | 0.0 | 3.0 | 0.00 | 0.00 | 0.00 | 72 | 1021.1 |
| 20260903060314 | 74 | 58 | 0.0 | 3.0 | 0.00 | 0.00 | 0.00 | 71 | 1021.1 |
| 20260903060111 | 74 | 57 | 0.0 | 2.0 | 0.00 | 0.00 | 0.00 | 71 | 1021.1 |
| 20260903055309 | 74 | 57 | 1.0 | 2.0 | 0.00 | 0.00 | 0.00 | 71 | 1021.0 |
| 20260903054807 | 73 | 359 | 0.0 | 2.0 | 0.00 | 0.00 | 0.00 | 71 | 1021.0 |
| 20260903054319 | 73 | 359 | 0.0 | 1.0 | 0.00 | 0.00 | 0.00 | 71 | 1021.0 |
| 20260903054116 | 72 | 359 | 0.0 | 1.0 | 0.00 | 0.00 | 0.00 | 71 | 1020.9 |
| 20260903053306 | 72 | 359 | 0.0 | 1.0 | 0.00 | 0.00 | 0.00 | 71 | 1020.9 |
| 20260903052821 | 71 | 359 | 0.0 | 1.0 | 0.00 | 0.00 | 0.00 | 70 | 1020.9 |
| 20260903052307 | 71 | 359 | 0.0 | 1.0 | 0.00 | 0.00 | 0.00 | 71 | 1020.8 |
| 20260903051809 | 71 | 359 | 1.0 | 2.0 | 0.00 | 0.00 | 0.00 | 73 | 1020.8 |
| 20260903051421 | 70 | 359 | 2.0 | 3.0 | 0.00 | 0.00 | 0.00 | 73 | 1020.8 |
| 20260903051402 | 70 | 359 | 1.0 | 2.0 | 0.00 | 0.00 | 0.00 | 73 | 1020.8 |
| 20260903050307 | 69 | 359 | 2.0 | 3.0 | 0.00 | 0.00 | 0.00 | 73 | 1020.7 |
| 20260903045806 | 69 | 359 | 2.0 | 2.0 | 0.00 | 0.00 | 0.00 | 72 | 1020.6 |
| 20260903045337 | 69 | 359 | 1.0 | 2.0 | 0.00 | 0.00 | 0.00 | 71 | 1020.6 |
| 20260903045326 | 69 | 359 | 2.0 | 2.0 | 0.00 | 0.00 | 0.00 | 71 | 1020.6 |
| 20260903044305 | 69 | 359 | 2.0 | 3.0 | 0.00 | 0.00 | 0.00 | 71 | 1020.6 |
| 20260903044041 | 69 | 359 | 2.0 | 3.0 | 0.00 | 0.00 | 0.00 | 72 | 1020.5 |
| 20260903043306 | 69 | 359 | 1.0 | 3.0 | 0.00 | 0.00 | 0.00 | 71 | 1020.5 |
| 20260903042805 | 69 | 359 | 1.0 | 2.0 | 0.00 | 0.00 | 0.00 | 70 | 1020.5 |
| 20260903042547 | 69 | 359 | 1.0 | 2.0 | 0.00 | 0.00 | 0.00 | 70 | 1020.5 |